Location: Dilsberg
(49.3983°N, 8.8354°E)
Time: 06:16:17
(UTC+00:00)

SL-16 R/B - Pass Details

Date: 19 May 2025
Orbit: 841 x 844 km, 71.0° (Epoch: 22 June)

Event Time Altitude Azimuth Distance (km) Brightness Sun altitude
Rises 22:41:04 0° 330° (NNW) 3,414 6.6 -20.1°
Reaches altitude 10° 22:43:32 10° 329° (NNW) 2,475 5.6 -20.1°
Maximum altitude 22:49:12 77° 245° (WSW) 872 2.1 -20.3°
Enters shadow 22:51:19 40° 167° (SSE) 1,227 2.5 -20.3°
